Regional Weather Roundup
Issued by NWS Cleveland, OH

Home | Current Version | Previous Version | Graphics & Text | Print | Product List | Glossary On
Versions: 1 2 3 4 5 6 7 8 9 10 11 12 13 14 15 16 17 18 19 20 21 22 23 24 25 26 27 28 29 30 31 32 33 34 35 36 37 38 39 40 41 42 43 44 45 46 47 48 49 50
000
ASUS41 KCLE 210510
RWRCLE
OHIO REGIONAL WEATHER ROUNDUP
NATIONAL WEATHER SERVICE CLEVELAND, OH
100 AM EDT SUN SEP 21 2014

NOTE: "FAIR" INDICATES FEW OR NO CLOUDS BELOW 12,000 FEET WITH NO
SIGNIFICANT WEATHER AND/OR OBSTRUCTIONS TO VISIBILITY.

OHZ001>008-015>018-024>027-034-035-043-044-210600-
   NORTHWEST OHIO

CITY           SKY/WX    TMP DP  RH WIND       PRES   REMARKS
DEFIANCE       CLOUDY   N/A N/A N/A S6        29.81F
FINDLAY        CLOUDY    65  61  87 S12       29.82F
TOLEDO EXPRESS LGT RAIN  64  63  96 SW12      29.80F
TOLEDO EXEC    LGT RAIN  65  61  87 S13       29.82F
LIMA           CLOUDY    67  63  87 S8        29.84F
$$

OHZ009>014-019>023-028>033-038-089-210600-
   NORTHEAST OHIO

CITY           SKY/WX    TMP DP  RH WIND       PRES   REMARKS
CLE-HOPKINS    CLOUDY    65  61  87 S9        29.87S
CLE-LAKEFRONT  CLOUDY    69  61  75 SW14      29.84R
CUY CO. ARPT   NOT AVBL
LORAIN-ELYRIA  MOCLDY    65  60  84 SW6       29.85R
ASHTABULA      CLOUDY    70  62  76 S13       29.84F
AKRON-CANTON   CLOUDY    69  62  78 S10       29.88F
WOOSTER        CLOUDY    65  62  90 SW6       29.89F
MANSFIELD      CLOUDY    66  64  93 S9        29.89F
YOUNGSTOWN     CLOUDY    69  62  78 S8G16     29.88F
$$

OHZ042-051>053-060>062-070>072-077>081-210600-
  SOUTHWEST OHIO

CITY           SKY/WX    TMP DP  RH WIND       PRES   REMARKS
CINC-COVINGTON CLOUDY    71  64  78 S8        29.93F
CINC-LUNKEN    MOCLDY    70  65  84 S5        29.93S
HAMILTON       MOCLDY    70  66  87 SW3       29.91F
DAYTON         CLOUDY    72  65  78 SW13      29.90F
WRIGHT-PAT AFB CLOUDY    73  65  75 S12       29.89F
DAYTON GENERAL CLOUDY    70  65  84 S8        29.90F
WILMINGTON     CLOUDY    68  62  81 S10       29.92F
$$

OHZ036-037-039>041-045>050-054>059-063>069-073>076-082>088-210600-
  CENTRAL AND SOUTHEAST OHIO

CITY           SKY/WX    TMP DP  RH WIND       PRES   REMARKS
COLUMBUS       CLOUDY    74  62  66 SW9       29.90F
OSU AIRPORT    CLOUDY    72  63  73 SW8       29.90F
BOLTON FIELD   CLOUDY    69  64  85 S7        29.91F
RICKENBACK AFB CLOUDY    69  63  80 SW8       29.91F
NEWARK         CLOUDY    67  62  84 W5        29.91F
MARION         MOCLDY    66  62  87 S7        29.87F
LANCASTER      CLOUDY    71  63  75 S8        29.92F
ZANESVILLE     CLOUDY    69  62  78 S9        29.92F
NEW PHILLY     CLOUDY    67  63  87 S5        29.90F
$$


USA.gov is the U.S. government's official web portal to all federal, state and local government web resources and services.